Time,TemperatureF,DewpointF,PressureIn,WindDirection,WindDirectionDegrees,WindSpeedMPH,WindSpeedGustMPH,Humidity,HourlyPrecipIn,Conditions,Clouds,dailyrainin,SolarRadiationWatts/m^2,SoftwareType,DateUTC
2013-03-05 00:00:00,66.0,62.0,29.87,SW,225,5.0,6.0,87,0.00,,---,0.00,0.00,VWS V14.01,2013-03-05 06:00:00,
2013-03-05 00:03:00,66.1,62.1,29.87,SSE,153,3.0,8.0,87,0.00,,---,0.00,0.00,VWS V14.01,2013-03-05 06:03:00,
2013-03-05 00:04:00,66.1,62.1,29.87,SSE,152,2.0,8.0,87,0.00,,---,0.00,0.00,VWS V14.01,2013-03-05 06:04:00,
2013-03-05 00:05:00,66.1,62.1,29.87,ESE,116,3.0,8.0,87,0.00,,---,0.00,0.00,VWS V14.01,2013-03-05 06:05:00,
2013-03-05 00:06:00,66.1,62.1,29.87,SSW,193,2.0,8.0,87,0.00,,---,0.00,0.00,VWS V14.01,2013-03-05 06:06:00,
2013-03-05 00:08:00,66.1,62.1,29.87,SE,144,5.0,8.0,87,0.00,,---,0.00,0.00,VWS V14.01,2013-03-05 06:08:00,
2013-03-05 00:10:00,66.2,62.2,29.87,SE,130,5.0,8.0,87,0.00,,---,0.00,0.00,VWS V14.01,2013-03-05 06:10:00,
2013-03-05 00:11:00,66.2,62.2,29.86,ESE,122,11.0,14.0,87,0.00,,---,0.00,0.00,VWS V14.01,2013-03-05 06:11:00,
2013-03-05 00:13:00,66.2,61.9,29.86,South,185,1.0,14.0,86,0.00,,---,0.00,0.00,VWS V14.01,2013-03-05 06:13:00,
2013-03-05 00:15:00,66.2,61.9,29.86,South,186,1.0,14.0,86,0.00,,---,0.00,0.00,VWS V14.01,2013-03-05 06:15:00,
2013-03-05 00:16:00,66.2,61.9,29.86,SSE,165,1.0,14.0,86,0.00,,---,0.00,0.00,VWS V14.01,2013-03-05 06:16:00,
2013-03-05 00:17:00,66.2,61.9,29.86,South,184,3.0,14.0,86,0.00,,---,0.00,0.00,VWS V14.01,2013-03-05 06:17:00,
2013-03-05 00:20:00,66.2,61.9,29.87,SSE,150,6.0,14.0,86,0.00,,---,0.00,0.00,VWS V14.01,2013-03-05 06:20:00,
2013-03-05 00:22:00,66.2,61.9,29.87,SE,138,2.0,14.0,86,0.00,,---,0.00,0.00,VWS V14.01,2013-03-05 06:22:00,
2013-03-05 00:24:00,66.1,61.8,29.87,SE,143,4.0,14.0,86,0.00,,---,0.00,0.00,VWS V14.01,2013-03-05 06:24:00,
2013-03-05 00:25:00,66.2,61.9,29.87,SW,229,4.0,14.0,86,0.00,,---,0.00,0.00,VWS V14.01,2013-03-05 06:25:00,
2013-03-05 00:26:00,66.2,61.9,29.87,SW,225,1.0,14.0,86,0.00,,---,0.00,0.00,VWS V14.01,2013-03-05 06:26:00,
2013-03-05 00:30:00,66.2,61.9,29.87,SSE,150,5.0,7.0,86,0.00,,---,0.00,0.00,VWS V14.01,2013-03-05 06:30:00,
2013-03-05 00:31:00,66.2,61.9,29.86,South,173,4.0,7.0,86,0.00,,---,0.00,0.00,VWS V14.01,2013-03-05 06:31:00,
2013-03-05 00:35:00,66.2,61.9,29.86,South,178,3.0,7.0,86,0.00,,---,0.00,0.00,VWS V14.01,2013-03-05 06:35:00,
2013-03-05 00:36:00,66.2,61.9,29.86,SW,221,7.0,7.0,86,0.00,,---,0.00,0.00,VWS V14.01,2013-03-05 06:36:00,
2013-03-05 00:37:00,66.2,61.9,29.86,SSE,162,8.0,11.0,86,0.00,,---,0.00,0.00,VWS V14.01,2013-03-05 06:37:00,
2013-03-05 00:40:00,66.2,61.9,29.86,SSE,155,3.0,11.0,86,0.00,,---,0.00,0.00,VWS V14.01,2013-03-05 06:40:00,
2013-03-05 00:41:00,66.2,61.9,29.86,ESE,113,2.0,11.0,86,0.00,,---,0.00,0.00,VWS V14.01,2013-03-05 06:41:00,
2013-03-05 00:42:00,66.2,61.9,29.86,SSE,163,1.0,11.0,86,0.00,,---,0.00,0.00,VWS V14.01,2013-03-05 06:42:00,
2013-03-05 00:43:00,66.2,61.9,29.86,South,179,5.0,11.0,86,0.00,,---,0.00,0.00,VWS V14.01,2013-03-05 06:43:00,
2013-03-05 00:46:00,66.2,61.9,29.86,SSE,166,2.0,11.0,86,0.00,,---,0.00,0.00,VWS V14.01,2013-03-05 06:46:00,
2013-03-05 00:47:00,66.1,61.8,29.86,SSW,197,3.0,11.0,86,0.00,,---,0.00,0.00,VWS V14.01,2013-03-05 06:47:00,
2013-03-05 00:48:00,66.2,61.9,29.86,SE,146,4.0,11.0,86,0.00,,---,0.00,0.00,VWS V14.01,2013-03-05 06:48:00,
2013-03-05 00:52:00,66.1,61.8,29.86,SSE,157,2.0,11.0,86,0.00,,---,0.00,0.00,VWS V14.01,2013-03-05 06:52:00,
2013-03-05 00:53:00,66.1,61.8,29.86,South,186,3.0,11.0,86,0.00,,---,0.00,0.00,VWS V14.01,2013-03-05 06:53:00,
2013-03-05 00:54:00,66.1,61.8,29.86,East,98,7.0,11.0,86,0.00,,---,0.00,0.00,VWS V14.01,2013-03-05 06:54:00,
2013-03-05 00:57:00,66.1,61.8,29.86,East,88,11.0,12.0,86,0.00,,---,0.00,0.00,VWS V14.01,2013-03-05 06:57:00,
2013-03-05 00:58:00,66.1,61.8,29.86,South,173,4.0,12.0,86,0.00,,---,0.00,0.00,VWS V14.01,2013-03-05 06:58:00,
2013-03-05 01:00:00,66.1,61.8,29.85,SSE,159,3.0,13.0,86,0.00,,---,0.00,0.00,VWS V14.01,2013-03-05 07:00:00,
2013-03-05 01:01:00,66.1,61.8,29.85,South,180,2.0,9.0,86,0.00,,---,0.00,0.00,VWS V14.01,2013-03-05 07:01:00,
2013-03-05 01:03:00,66.1,61.8,29.85,SSE,154,7.0,9.0,86,0.00,,---,0.00,0.00,VWS V14.01,2013-03-05 07:03:00,
2013-03-05 01:04:00,66.1,61.8,29.85,SE,136,8.0,11.0,86,0.00,,---,0.00,0.00,VWS V14.01,2013-03-05 07:04:00,
2013-03-05 01:05:00,66.1,61.8,29.85,SE,144,2.0,11.0,86,0.00,,---,0.00,0.00,VWS V14.01,2013-03-05 07:05:00,
2013-03-05 01:08:00,66.1,61.8,29.85,South,177,5.0,11.0,86,0.00,,---,0.00,0.00,VWS V14.01,2013-03-05 07:08:00,
2013-03-05 01:10:00,66.1,61.8,29.86,SSE,155,2.0,11.0,86,0.00,,---,0.00,0.00,VWS V14.01,2013-03-05 07:10:00,
2013-03-05 01:11:00,66.1,61.8,29.86,SSE,159,3.0,11.0,86,0.00,,---,0.00,0.00,VWS V14.01,2013-03-05 07:11:00,
2013-03-05 01:14:00,66.1,61.8,29.86,SSE,155,5.0,11.0,86,0.00,,---,0.00,0.00,VWS V14.01,2013-03-05 07:14:00,
2013-03-05 01:15:00,66.1,61.8,29.85,SW,219,4.0,11.0,86,0.00,,---,0.00,0.00,VWS V14.01,2013-03-05 07:15:00,
2013-03-05 01:17:00,66.2,61.9,29.86,SSE,148,5.0,11.0,86,0.00,,---,0.00,0.00,VWS V14.01,2013-03-05 07:17:00,
2013-03-05 01:18:00,66.2,61.9,29.86,SSE,148,4.0,11.0,86,0.00,,---,0.00,0.00,VWS V14.01,2013-03-05 07:18:00,
2013-03-05 01:19:00,66.2,61.9,29.85,SE,139,7.0,11.0,86,0.00,,---,0.00,0.00,VWS V14.01,2013-03-05 07:19:00,
2013-03-05 01:23:00,66.2,61.9,29.86,SE,137,4.0,11.0,86,0.00,,---,0.00,0.00,VWS V14.01,2013-03-05 07:23:00,
2013-03-05 01:24:00,66.2,61.9,29.86,South,181,3.0,11.0,86,0.00,,---,0.00,0.00,VWS V14.01,2013-03-05 07:24:00,
2013-03-05 01:28:00,66.1,61.8,29.86,SE,142,8.0,11.0,86,0.00,,---,0.00,0.00,VWS V14.01,2013-03-05 07:28:00,
2013-03-05 01:29:00,66.1,61.8,29.86,SE,138,3.0,11.0,86,0.00,,---,0.00,0.00,VWS V14.01,2013-03-05 07:29:00,
2013-03-05 01:30:00,66.0,61.7,29.84,SSE,149,3.0,10.0,86,0.00,,---,0.00,0.00,VWS V14.01,2013-03-05 07:30:00,
2013-03-05 01:33:00,66.1,61.8,29.86,SSE,150,3.0,8.0,86,0.00,,---,0.00,0.00,VWS V14.01,2013-03-05 07:33:00,
2013-03-05 01:35:00,66.1,61.8,29.86,SSE,150,3.0,8.0,86,0.00,,---,0.00,0.00,VWS V14.01,2013-03-05 07:35:00,
2013-03-05 01:40:00,66.1,61.8,29.86,SSW,207,6.0,8.0,86,0.00,,---,0.00,0.00,VWS V14.01,2013-03-05 07:40:00,
2013-03-05 01:41:00,66.1,61.8,29.86,ESE,117,5.0,8.0,86,0.00,,---,0.00,0.00,VWS V14.01,2013-03-05 07:41:00,
2013-03-05 01:42:00,66.1,61.8,29.86,SSW,194,3.0,8.0,86,0.00,,---,0.00,0.00,VWS V14.01,2013-03-05 07:42:00,
2013-03-05 01:45:00,66.1,61.8,29.85,SSE,153,6.0,10.0,86,0.00,,---,0.00,0.00,VWS V14.01,2013-03-05 07:45:00,
2013-03-05 01:46:00,66.1,61.8,29.85,SE,141,5.0,10.0,86,0.00,,---,0.00,0.00,VWS V14.01,2013-03-05 07:46:00,
2013-03-05 01:47:00,66.1,61.8,29.85,SSE,151,6.0,10.0,86,0.00,,---,0.00,0.00,VWS V14.01,2013-03-05 07:47:00,
2013-03-05 01:51:00,66.1,61.8,29.85,SE,144,8.0,10.0,86,0.00,,---,0.00,0.00,VWS V14.01,2013-03-05 07:51:00,
2013-03-05 01:52:00,66.1,61.8,29.85,SSE,154,7.0,10.0,86,0.00,,---,0.00,0.00,VWS V14.01,2013-03-05 07:52:00,
2013-03-05 01:53:00,66.1,61.8,29.85,ESE,118,10.0,12.0,86,0.00,,---,0.00,0.00,VWS V14.01,2013-03-05 07:53:00,
2013-03-05 01:56:00,66.1,61.8,29.85,SE,144,7.0,13.0,86,0.00,,---,0.00,0.00,VWS V14.01,2013-03-05 07:56:00,
2013-03-05 01:57:00,66.1,61.8,29.85,ESE,122,1.0,13.0,86,0.00,,---,0.00,0.00,VWS V14.01,2013-03-05 07:57:00,
2013-03-05 01:59:00,66.1,61.8,29.85,SSW,210,4.0,13.0,86,0.00,,---,0.00,0.00,VWS V14.01,2013-03-05 07:59:00,
2013-03-05 02:00:00,66.1,61.5,29.84,ESE,112,2.0,15.0,85,0.00,,---,0.00,0.00,VWS V14.01,2013-03-05 08:00:00,
2013-03-05 02:02:00,66.1,61.8,29.85,East,86,2.0,10.0,86,0.00,,---,0.00,0.00,VWS V14.01,2013-03-05 08:02:00,
2013-03-05 02:03:00,66.1,61.8,29.84,South,169,4.0,10.0,86,0.00,,---,0.00,0.00,VWS V14.01,2013-03-05 08:03:00,
2013-03-05 02:05:00,66.1,61.8,29.85,SSE,153,2.0,10.0,86,0.00,,---,0.00,0.00,VWS V14.01,2013-03-05 08:05:00,
2013-03-05 02:08:00,66.0,61.7,29.84,South,170,4.0,10.0,86,0.00,,---,0.00,0.00,VWS V14.01,2013-03-05 08:08:00,
2013-03-05 02:09:00,66.0,61.7,29.84,SSW,207,5.0,10.0,86,0.00,,---,0.00,0.00,VWS V14.01,2013-03-05 08:09:00,
2013-03-05 02:10:00,66.0,61.7,29.84,SW,216,5.0,10.0,86,0.00,,---,0.00,0.00,VWS V14.01,2013-03-05 08:10:00,
2013-03-05 02:12:00,66.0,61.7,29.84,SSW,200,6.0,10.0,86,0.00,,---,0.00,0.00,VWS V14.01,2013-03-05 08:12:00,
2013-03-05 02:14:00,66.0,61.7,29.84,ESE,109,5.0,10.0,86,0.00,,---,0.00,0.00,VWS V14.01,2013-03-05 08:14:00,
2013-03-05 02:15:00,66.0,61.7,29.84,SSE,148,2.0,10.0,86,0.00,,---,0.00,0.00,VWS V14.01,2013-03-05 08:15:00,
2013-03-05 02:16:00,66.0,61.7,29.84,SSE,148,6.0,10.0,86,0.00,,---,0.00,0.00,VWS V14.01,2013-03-05 08:16:00,
2013-03-05 02:17:00,65.9,61.6,29.84,SSE,164,6.0,10.0,86,0.00,,---,0.00,0.00,VWS V14.01,2013-03-05 08:17:00,
2013-03-05 02:19:00,66.0,61.7,29.84,SW,220,7.0,10.0,86,0.00,,---,0.00,0.00,VWS V14.01,2013-03-05 08:19:00,
2013-03-05 02:20:00,66.0,61.7,29.84,SSE,156,9.0,10.0,86,0.00,,---,0.00,0.00,VWS V14.01,2013-03-05 08:20:00,
2013-03-05 02:22:00,66.0,61.7,29.84,SSE,154,3.0,10.0,86,0.00,,---,0.00,0.00,VWS V14.01,2013-03-05 08:22:00,
2013-03-05 02:25:00,66.0,61.7,29.84,SW,232,4.0,10.0,86,0.00,,---,0.00,0.00,VWS V14.01,2013-03-05 08:25:00,
2013-03-05 02:26:00,66.0,61.7,29.84,SE,138,3.0,10.0,86,0.00,,---,0.00,0.00,VWS V14.01,2013-03-05 08:26:00,
2013-03-05 02:27:00,66.0,61.7,29.84,SSE,165,7.0,10.0,86,0.00,,---,0.00,0.00,VWS V14.01,2013-03-05 08:27:00,
2013-03-05 02:30:00,66.3,61.7,29.85,SSW,200,7.0,10.0,85,0.00,,---,0.00,0.00,VWS V14.01,2013-03-05 08:30:00,
2013-03-05 02:31:00,66.0,61.7,29.84,WSW,253,5.0,7.0,86,0.00,,---,0.00,0.00,VWS V14.01,2013-03-05 08:31:00,
2013-03-05 02:33:00,66.0,61.7,29.84,SSE,147,4.0,8.0,86,0.00,,---,0.00,0.00,VWS V14.01,2013-03-05 08:33:00,
2013-03-05 02:36:00,66.1,61.8,29.84,SSE,149,2.0,9.0,86,0.00,,---,0.00,0.00,VWS V14.01,2013-03-05 08:36:00,
2013-03-05 02:37:00,66.1,61.8,29.84,South,175,4.0,9.0,86,0.00,,---,0.00,0.00,VWS V14.01,2013-03-05 08:37:00,
2013-03-05 02:38:00,66.0,61.7,29.84,South,171,6.0,9.0,86,0.00,,---,0.00,0.00,VWS V14.01,2013-03-05 08:38:00,
2013-03-05 02:41:00,66.0,61.7,29.84,ESE,113,2.0,15.0,86,0.00,,---,0.00,0.00,VWS V14.01,2013-03-05 08:41:00,
2013-03-05 02:42:00,66.1,61.8,29.84,SSE,153,5.0,15.0,86,0.00,,---,0.00,0.00,VWS V14.01,2013-03-05 08:42:00,
2013-03-05 02:44:00,66.1,61.8,29.84,South,169,6.0,15.0,86,0.00,,---,0.00,0.00,VWS V14.01,2013-03-05 08:44:00,
2013-03-05 02:47:00,66.1,61.8,29.84,SE,146,2.0,15.0,86,0.00,,---,0.00,0.00,VWS V14.01,2013-03-05 08:47:00,
2013-03-05 02:49:00,66.1,61.8,29.84,SW,215,6.0,15.0,86,0.00,,---,0.00,0.00,VWS V14.01,2013-03-05 08:49:00,
2013-03-05 02:52:00,66.1,61.8,29.84,ESE,119,2.0,15.0,86,0.00,,---,0.00,0.00,VWS V14.01,2013-03-05 08:52:00,
2013-03-05 02:54:00,66.1,61.8,29.84,South,186,2.0,15.0,86,0.00,,---,0.00,0.00,VWS V14.01,2013-03-05 08:54:00,
2013-03-05 02:57:00,66.1,61.5,29.84,SE,128,2.0,15.0,85,0.00,,---,0.00,0.00,VWS V14.01,2013-03-05 08:57:00,
2013-03-05 02:59:00,66.2,61.6,29.84,South,191,4.0,15.0,85,0.00,,---,0.00,0.00,VWS V14.01,2013-03-05 08:59:00,
2013-03-05 03:00:00,66.3,61.7,29.87,SSW,202,0.0,10.0,85,0.00,,---,0.00,0.00,VWS V14.01,2013-03-05 09:00:00,
2013-03-05 03:01:00,66.2,61.9,29.84,SSE,153,3.0,5.0,86,0.00,,---,0.00,0.00,VWS V14.01,2013-03-05 09:01:00,
2013-03-05 03:02:00,66.2,61.9,29.84,SE,130,4.0,10.0,86,0.00,,---,0.00,0.00,VWS V14.01,2013-03-05 09:02:00,
2013-03-05 03:04:00,66.2,61.9,29.84,South,179,3.0,10.0,86,0.00,,---,0.00,0.00,VWS V14.01,2013-03-05 09:04:00,
2013-03-05 03:05:00,66.2,61.9,29.84,SW,216,5.0,10.0,86,0.00,,---,0.00,0.00,VWS V14.01,2013-03-05 09:05:00,
2013-03-05 03:06:00,66.2,61.9,29.84,South,178,1.0,10.0,86,0.00,,---,0.00,0.00,VWS V14.01,2013-03-05 09:06:00,
2013-03-05 03:08:00,66.2,61.9,29.84,SSE,168,4.0,10.0,86,0.00,,---,0.00,0.00,VWS V14.01,2013-03-05 09:08:00,
2013-03-05 03:10:00,66.2,61.9,29.84,SSE,156,0.0,10.0,86,0.00,,---,0.00,0.00,VWS V14.01,2013-03-05 09:10:00,
2013-03-05 03:12:00,66.2,61.6,29.84,SSE,159,6.0,10.0,85,0.00,,---,0.00,0.00,VWS V14.01,2013-03-05 09:12:00,
2013-03-05 03:13:00,66.2,61.6,29.84,South,182,3.0,10.0,85,0.00,,---,0.00,0.00,VWS V14.01,2013-03-05 09:13:00,
2013-03-05 03:14:00,66.2,61.6,29.84,SSE,155,4.0,10.0,85,0.00,,---,0.00,0.00,VWS V14.01,2013-03-05 09:14:00,
2013-03-05 03:18:00,66.2,61.6,29.84,South,187,3.0,10.0,85,0.00,,---,0.00,0.00,VWS V14.01,2013-03-05 09:18:00,
2013-03-05 03:19:00,66.2,61.6,29.84,South,187,4.0,10.0,85,0.00,,---,0.00,0.00,VWS V14.01,2013-03-05 09:19:00,
2013-03-05 03:22:00,66.2,61.6,29.84,SSW,205,7.0,10.0,85,0.00,,---,0.00,0.00,VWS V14.01,2013-03-05 09:22:00,
2013-03-05 03:26:00,66.2,61.6,29.85,South,190,5.0,10.0,85,0.00,,---,0.00,0.00,VWS V14.01,2013-03-05 09:26:00,
2013-03-05 03:27:00,66.2,61.6,29.85,SSW,205,6.0,10.0,85,0.00,,---,0.00,0.00,VWS V14.01,2013-03-05 09:27:00,
2013-03-05 03:30:00,66.4,61.4,29.95,WSW,254,2.0,7.0,84,0.00,,---,0.00,0.00,VWS V14.01,2013-03-05 09:30:00,
2013-03-05 03:31:00,66.3,61.7,29.86,SSE,152,2.0,8.0,85,0.00,,---,0.00,0.00,VWS V14.01,2013-03-05 09:31:00,
2013-03-05 03:32:00,66.3,61.7,29.86,SSE,153,2.0,8.0,85,0.00,,---,0.00,0.00,VWS V14.01,2013-03-05 09:32:00,
2013-03-05 03:33:00,66.3,61.7,29.86,SSE,150,2.0,8.0,85,0.00,,---,0.00,0.00,VWS V14.01,2013-03-05 09:33:00,
2013-03-05 03:35:00,66.3,61.7,29.86,SSE,148,3.0,8.0,85,0.00,,---,0.00,0.00,VWS V14.01,2013-03-05 09:35:00,
2013-03-05 03:36:00,66.3,61.7,29.86,South,170,2.0,8.0,85,0.00,,---,0.00,0.00,VWS V14.01,2013-03-05 09:36:00,
2013-03-05 03:37:00,66.3,61.7,29.86,SSW,198,2.0,8.0,85,0.00,,---,0.00,0.00,VWS V14.01,2013-03-05 09:37:00,
2013-03-05 03:40:00,66.3,61.7,29.86,SSE,163,3.0,8.0,85,0.00,,---,0.00,0.00,VWS V14.01,2013-03-05 09:40:00,
2013-03-05 03:43:00,66.3,61.7,29.86,SSW,203,1.0,10.0,85,0.00,,---,0.00,0.00,VWS V14.01,2013-03-05 09:43:00,
2013-03-05 03:44:00,66.3,61.7,29.86,SSE,150,1.0,10.0,85,0.00,,---,0.00,0.00,VWS V14.01,2013-03-05 09:44:00,
2013-03-05 03:45:00,66.3,61.7,29.86,SSE,163,4.0,10.0,85,0.00,,---,0.00,0.00,VWS V14.01,2013-03-05 09:45:00,
2013-03-05 03:49:00,66.3,61.7,29.86,SSE,168,3.0,10.0,85,0.00,,---,0.00,0.00,VWS V14.01,2013-03-05 09:49:00,
2013-03-05 03:50:00,66.3,61.7,29.86,SSW,205,4.0,10.0,85,0.00,,---,0.00,0.00,VWS V14.01,2013-03-05 09:50:00,
2013-03-05 03:51:00,66.3,61.7,29.86,South,184,1.0,10.0,85,0.00,,---,0.00,0.00,VWS V14.01,2013-03-05 09:51:00,
2013-03-05 03:55:00,66.3,61.7,29.86,South,188,4.0,10.0,85,0.00,,---,0.00,0.00,VWS V14.01,2013-03-05 09:55:00,
2013-03-05 03:56:00,66.3,61.7,29.86,SSW,208,4.0,10.0,85,0.00,,---,0.00,0.00,VWS V14.01,2013-03-05 09:56:00,
2013-03-05 04:00:00,66.3,61.7,29.87,SSW,202,0.0,0.0,85,0.00,,---,0.00,0.00,VWS V14.01,2013-03-05 10:00:00,
2013-03-05 04:01:00,66.3,61.7,29.88,SSW,194,2.0,4.0,85,0.00,,---,0.00,0.00,VWS V14.01,2013-03-05 10:01:00,
2013-03-05 04:02:00,66.3,61.7,29.88,South,191,1.0,4.0,85,0.00,,---,0.00,0.00,VWS V14.01,2013-03-05 10:02:00,
2013-03-05 04:03:00,66.3,61.7,29.89,South,191,0.0,4.0,85,0.00,,---,0.00,0.00,VWS V14.01,2013-03-05 10:03:00,
2013-03-05 04:06:00,66.2,61.6,29.91,WNW,294,3.0,6.0,85,0.00,,---,0.00,0.00,VWS V14.01,2013-03-05 10:06:00,
2013-03-05 04:07:00,66.2,61.6,29.92,WNW,294,3.0,6.0,85,0.00,,---,0.00,0.00,VWS V14.01,2013-03-05 10:07:00,
2013-03-05 04:08:00,66.2,61.9,29.93,SSW,198,2.0,7.0,86,0.00,,---,0.00,0.00,VWS V14.01,2013-03-05 10:08:00,
2013-03-05 04:11:00,66.2,61.9,29.93,WSW,257,3.0,7.0,86,0.00,,---,0.00,0.00,VWS V14.01,2013-03-05 10:11:00,
2013-03-05 04:12:00,66.2,61.6,29.92,WSW,246,1.0,7.0,85,0.00,,---,0.00,0.00,VWS V14.01,2013-03-05 10:12:00,
2013-03-05 04:14:00,66.2,61.6,29.92,SE,144,3.0,7.0,85,0.00,,---,0.00,0.00,VWS V14.01,2013-03-05 10:14:00,
2013-03-05 04:17:00,66.2,61.6,29.92,WNW,302,3.0,7.0,85,0.00,,---,0.00,0.00,VWS V14.01,2013-03-05 10:17:00,
2013-03-05 04:18:00,66.2,61.6,29.93,West,277,4.0,7.0,85,0.00,,---,0.00,0.00,VWS V14.01,2013-03-05 10:18:00,
2013-03-05 04:19:00,66.2,61.6,29.94,West,271,3.0,7.0,85,0.00,,---,0.00,0.00,VWS V14.01,2013-03-05 10:19:00,
2013-03-05 04:20:00,66.2,61.6,29.94,WSW,247,0.0,7.0,85,0.00,,---,0.00,0.00,VWS V14.01,2013-03-05 10:20:00,
2013-03-05 04:24:00,66.3,61.7,29.93,SSW,203,0.0,7.0,85,0.00,,---,0.00,0.00,VWS V14.01,2013-03-05 10:24:00,
2013-03-05 04:27:00,66.3,61.3,29.94,WSW,257,0.0,7.0,84,0.00,,---,0.00,0.00,VWS V14.01,2013-03-05 10:27:00,
2013-03-05 04:29:00,66.4,61.4,29.95,WSW,257,0.0,7.0,84,0.00,,---,0.00,0.00,VWS V14.01,2013-03-05 10:29:00,
2013-03-05 04:30:00,66.5,61.5,29.95,WSW,254,1.0,2.0,84,0.00,,---,0.00,0.00,VWS V14.01,2013-03-05 10:30:00,
2013-03-05 04:33:00,66.5,61.5,29.94,SW,219,1.0,5.0,84,0.00,,---,0.00,0.00,VWS V14.01,2013-03-05 10:33:00,
2013-03-05 04:34:00,66.5,61.5,29.95,WSW,254,5.0,5.0,84,0.00,,---,0.00,0.00,VWS V14.01,2013-03-05 10:34:00,
2013-03-05 04:36:00,66.5,61.5,29.96,WNW,292,3.0,6.0,84,0.00,,---,0.00,0.00,VWS V14.01,2013-03-05 10:36:00,
2013-03-05 04:39:00,66.6,61.3,29.95,South,181,3.0,8.0,83,0.00,,---,0.00,0.00,VWS V14.01,2013-03-05 10:39:00,
2013-03-05 04:40:00,66.7,61.4,29.95,SSE,164,2.0,8.0,83,0.00,,---,0.00,0.00,VWS V14.01,2013-03-05 10:40:00,
2013-03-05 04:42:00,66.7,61.4,29.95,WNW,282,3.0,8.0,83,0.00,,---,0.00,0.00,VWS V14.01,2013-03-05 10:42:00,
2013-03-05 04:44:00,66.7,61.4,29.96,West,259,1.0,8.0,83,0.00,,---,0.00,0.00,VWS V14.01,2013-03-05 10:44:00,
2013-03-05 04:45:00,66.7,61.4,29.96,West,263,2.0,8.0,83,0.00,,---,0.00,0.00,VWS V14.01,2013-03-05 10:45:00,
2013-03-05 04:46:00,66.8,61.5,29.96,West,265,1.0,8.0,83,0.00,,---,0.00,0.00,VWS V14.01,2013-03-05 10:46:00,
2013-03-05 04:49:00,66.8,61.5,29.95,South,186,0.0,8.0,83,0.00,,---,0.00,0.00,VWS V14.01,2013-03-05 10:49:00,
2013-03-05 04:50:00,66.8,61.5,29.95,South,186,0.0,8.0,83,0.00,,---,0.00,0.00,VWS V14.01,2013-03-05 10:50:00,
2013-03-05 04:52:00,66.8,61.5,29.96,West,263,2.0,8.0,83,0.00,,---,0.00,0.00,VWS V14.01,2013-03-05 10:52:00,
2013-03-05 04:53:00,66.8,61.5,29.97,West,267,1.0,8.0,83,0.00,,---,0.00,0.00,VWS V14.01,2013-03-05 10:53:00,
2013-03-05 04:55:00,66.7,61.4,29.97,West,273,3.0,8.0,83,0.00,,---,0.00,0.00,VWS V14.01,2013-03-05 10:55:00,
2013-03-05 04:56:00,66.7,61.4,29.96,West,261,1.0,8.0,83,0.00,,---,0.00,0.00,VWS V14.01,2013-03-05 10:56:00,
2013-03-05 04:57:00,66.7,61.4,29.96,WSW,254,2.0,8.0,83,0.00,,---,0.00,0.00,VWS V14.01,2013-03-05 10:57:00,
2013-03-05 04:59:00,66.7,61.4,29.97,WSW,254,0.0,8.0,83,0.00,,---,0.00,0.00,VWS V14.01,2013-03-05 10:59:00,
2013-03-05 05:00:00,66.7,61.4,29.97,West,263,1.0,3.0,83,0.00,,---,0.00,0.00,VWS V14.01,2013-03-05 11:00:00,
2013-03-05 05:01:00,66.7,61.4,29.97,WSW,254,1.0,5.0,83,0.00,,---,0.00,0.00,VWS V14.01,2013-03-05 11:01:00,
2013-03-05 05:04:00,66.7,61.4,29.96,SSE,160,0.0,5.0,83,0.00,,---,0.00,0.00,VWS V14.01,2013-03-05 11:04:00,
2013-03-05 05:05:00,66.7,61.4,29.96,West,269,4.0,5.0,83,0.00,,---,0.00,0.00,VWS V14.01,2013-03-05 11:05:00,
2013-03-05 05:06:00,66.7,61.4,29.98,WNW,285,3.0,5.0,83,0.00,,---,0.00,0.00,VWS V14.01,2013-03-05 11:06:00,
2013-03-05 05:10:00,66.6,61.3,29.97,WSW,240,2.0,5.0,83,0.00,,---,0.00,0.00,VWS V14.01,2013-03-05 11:10:00,
2013-03-05 05:11:00,66.6,61.3,29.97,WSW,240,1.0,5.0,83,0.00,,---,0.00,0.00,VWS V14.01,2013-03-05 11:11:00,
2013-03-05 05:12:00,66.6,61.3,29.97,WSW,240,0.0,5.0,83,0.00,,---,0.00,0.00,VWS V14.01,2013-03-05 11:12:00,
2013-03-05 05:15:00,66.6,61.3,29.98,West,265,1.0,5.0,83,0.00,,---,0.00,0.00,VWS V14.01,2013-03-05 11:15:00,
2013-03-05 05:17:00,66.6,61.3,29.98,West,265,0.0,5.0,83,0.00,,---,0.00,0.00,VWS V14.01,2013-03-05 11:17:00,
2013-03-05 05:20:00,66.5,61.2,29.98,West,265,1.0,5.0,83,0.00,,---,0.00,0.00,VWS V14.01,2013-03-05 11:20:00,
2013-03-05 05:21:00,66.5,61.2,29.98,West,265,0.0,5.0,83,0.00,,---,0.00,0.00,VWS V14.01,2013-03-05 11:21:00,
2013-03-05 05:23:00,66.5,61.2,29.98,West,259,0.0,5.0,83,0.00,,---,0.00,0.00,VWS V14.01,2013-03-05 11:23:00,
2013-03-05 05:27:00,66.5,61.2,29.98,West,264,2.0,5.0,83,0.00,,---,0.00,0.00,VWS V14.01,2013-03-05 11:27:00,
2013-03-05 05:28:00,66.4,61.1,29.99,West,280,3.0,5.0,83,0.00,,---,0.00,0.00,VWS V14.01,2013-03-05 11:28:00,
2013-03-05 05:29:00,66.4,61.1,29.98,WSW,254,0.0,5.0,83,0.00,,---,0.00,0.00,VWS V14.01,2013-03-05 11:29:00,
2013-03-05 05:30:00,63.7,59.4,29.99,SE,138,0.0,0.0,86,0.00,,---,0.00,0.00,VWS V14.01,2013-03-05 11:30:00,
2013-03-05 05:33:00,66.3,61.3,29.98,SE,136,3.0,5.0,84,0.00,,---,0.00,0.00,VWS V14.01,2013-03-05 11:33:00,
2013-03-05 05:34:00,66.3,61.3,29.98,North,5,2.0,5.0,84,0.00,,---,0.00,0.00,VWS V14.01,2013-03-05 11:34:00,
2013-03-05 05:35:00,66.3,61.3,29.99,North,5,0.0,5.0,84,0.00,,---,0.00,0.00,VWS V14.01,2013-03-05 11:35:00,
2013-03-05 05:39:00,66.1,61.1,29.98,SE,138,0.0,5.0,84,0.00,,---,0.00,0.00,VWS V14.01,2013-03-05 11:39:00,
2013-03-05 05:40:00,66.1,61.1,29.98,SE,138,0.0,5.0,84,0.00,,---,0.00,0.00,VWS V14.01,2013-03-05 11:40:00,
2013-03-05 05:41:00,66.1,61.1,29.99,SE,138,1.0,5.0,84,0.00,,---,0.00,0.00,VWS V14.01,2013-03-05 11:41:00,
2013-03-05 05:45:00,66.0,61.0,29.97,SE,138,0.0,5.0,84,0.00,,---,0.00,0.00,VWS V14.01,2013-03-05 11:45:00,
2013-03-05 05:46:00,65.9,60.9,29.98,SE,138,0.0,5.0,84,0.00,,---,0.00,0.00,VWS V14.01,2013-03-05 11:46:00,
2013-03-05 05:49:00,65.8,60.8,29.97,SE,138,1.0,5.0,84,0.00,,---,0.00,0.00,VWS V14.01,2013-03-05 11:49:00,
2013-03-05 05:50:00,65.7,60.7,29.98,SE,138,0.0,5.0,84,0.00,,---,0.00,0.00,VWS V14.01,2013-03-05 11:50:00,
2013-03-05 05:51:00,65.7,60.7,29.98,SE,138,0.0,5.0,84,0.00,,---,0.00,0.00,VWS V14.01,2013-03-05 11:51:00,
2013-03-05 05:55:00,65.5,60.5,29.98,SE,138,0.0,5.0,84,0.00,,---,0.00,0.00,VWS V14.01,2013-03-05 11:55:00,
2013-03-05 05:56:00,65.5,60.5,29.98,SE,138,0.0,5.0,84,0.00,,---,0.00,0.00,VWS V14.01,2013-03-05 11:56:00,
2013-03-05 06:00:00,65.4,60.8,29.98,SE,138,0.0,0.0,85,0.00,,---,0.00,0.00,VWS V14.01,2013-03-05 12:00:00,
2013-03-05 06:01:00,65.3,60.7,29.98,SE,138,0.0,0.0,85,0.00,,---,0.00,0.00,VWS V14.01,2013-03-05 12:01:00,
2013-03-05 06:03:00,65.2,60.2,29.98,SE,138,0.0,0.0,84,0.00,,---,0.00,0.00,VWS V14.01,2013-03-05 12:03:00,
2013-03-05 06:06:00,65.0,60.4,29.98,SE,138,0.0,0.0,85,0.00,,---,0.00,0.00,VWS V14.01,2013-03-05 12:06:00,
2013-03-05 06:07:00,65.0,60.4,29.98,SE,138,0.0,0.0,85,0.00,,---,0.00,0.00,VWS V14.01,2013-03-05 12:07:00,
2013-03-05 06:09:00,64.8,60.2,29.98,SE,138,0.0,0.0,85,0.00,,---,0.00,0.00,VWS V14.01,2013-03-05 12:09:00,
2013-03-05 06:11:00,64.8,60.2,29.98,SE,138,0.0,0.0,85,0.00,,---,0.00,0.00,VWS V14.01,2013-03-05 12:11:00,
2013-03-05 06:14:00,64.6,60.0,29.99,SE,138,0.0,0.0,85,0.00,,---,0.00,0.00,VWS V14.01,2013-03-05 12:14:00,
2013-03-05 06:17:00,64.5,59.9,29.99,SE,138,0.0,0.0,85,0.00,,---,0.00,0.00,VWS V14.01,2013-03-05 12:17:00,
2013-03-05 06:19:00,64.4,59.8,29.99,SE,138,0.0,0.0,85,0.00,,---,0.00,0.00,VWS V14.01,2013-03-05 12:19:00,
2013-03-05 06:22:00,64.1,59.5,29.99,SE,138,0.0,0.0,85,0.00,,---,0.00,0.00,VWS V14.01,2013-03-05 12:22:00,
2013-03-05 06:25:00,64.0,59.7,29.99,SE,138,0.0,0.0,86,0.00,,---,0.00,0.00,VWS V14.01,2013-03-05 12:25:00,
2013-03-05 06:27:00,63.8,59.5,29.99,SE,138,0.0,0.0,86,0.00,,---,0.00,0.00,VWS V14.01,2013-03-05 12:27:00,
2013-03-05 06:30:00,63.7,59.4,29.99,SE,138,0.0,0.0,86,0.00,,---,0.00,0.00,VWS V14.01,2013-03-05 12:30:00,
2013-03-05 06:31:00,63.6,59.3,29.99,SE,138,0.0,0.0,86,0.00,,---,0.00,0.00,VWS V14.01,2013-03-05 12:31:00,
2013-03-05 06:32:00,63.5,59.2,30.00,SE,138,0.0,0.0,86,0.00,,---,0.00,0.00,VWS V14.01,2013-03-05 12:32:00,
2013-03-05 06:35:00,63.3,59.0,30.00,SE,138,0.0,0.0,86,0.00,,---,0.00,0.00,VWS V14.01,2013-03-05 12:35:00,
2013-03-05 06:37:00,63.2,59.3,30.00,SE,138,0.0,0.0,87,0.00,,---,0.00,0.00,VWS V14.01,2013-03-05 12:37:00,
2013-03-05 06:40:00,63.1,59.2,30.00,SE,138,0.0,0.0,87,0.00,,---,0.00,0.00,VWS V14.01,2013-03-05 12:40:00,
2013-03-05 06:41:00,63.0,59.1,30.00,SE,138,0.0,0.0,87,0.00,,---,0.00,0.00,VWS V14.01,2013-03-05 12:41:00,
2013-03-05 06:42:00,62.9,59.0,30.00,SE,138,0.0,0.0,87,0.00,,---,0.00,0.00,VWS V14.01,2013-03-05 12:42:00,
2013-03-05 06:46:00,62.8,59.2,30.01,SE,138,0.0,0.0,88,0.00,,---,0.00,0.00,VWS V14.01,2013-03-05 12:46:00,
2013-03-05 06:47:00,62.8,59.2,30.01,SE,138,0.0,0.0,88,0.00,,---,0.00,0.00,VWS V14.01,2013-03-05 12:47:00,
2013-03-05 06:48:00,62.8,59.2,30.01,SE,138,0.0,0.0,88,0.00,,---,0.00,0.00,VWS V14.01,2013-03-05 12:48:00,
2013-03-05 06:51:00,62.7,59.1,30.01,SE,138,0.0,0.0,88,0.00,,---,0.00,0.00,VWS V14.01,2013-03-05 12:51:00,
2013-03-05 06:53:00,62.7,59.1,30.01,SE,138,0.0,0.0,88,0.00,,---,0.00,0.00,VWS V14.01,2013-03-05 12:53:00,
2013-03-05 06:57:00,62.5,58.9,30.01,SE,138,0.0,0.0,88,0.00,,---,0.00,0.00,VWS V14.01,2013-03-05 12:57:00,
2013-03-05 06:58:00,62.5,58.9,30.01,SE,138,0.0,0.0,88,0.00,,---,0.00,0.00,VWS V14.01,2013-03-05 12:58:00,
2013-03-05 07:00:00,61.6,52.9,30.08,NW,323,1.0,13.0,73,0.00,,---,0.00,91.00,VWS V14.01,2013-03-05 13:00:00,
2013-03-05 07:02:00,62.6,59.3,30.02,WSW,238,0.0,3.0,89,0.00,,---,0.00,0.00,VWS V14.01,2013-03-05 13:02:00,
2013-03-05 07:03:00,62.6,59.3,30.02,WSW,238,0.0,3.0,89,0.00,,---,0.00,0.00,VWS V14.01,2013-03-05 13:03:00,
2013-03-05 07:04:00,62.6,59.3,30.02,WSW,238,0.0,3.0,89,0.00,,---,0.00,0.00,VWS V14.01,2013-03-05 13:04:00,
2013-03-05 07:06:00,62.7,59.7,30.02,South,172,3.0,6.0,90,0.00,,---,0.00,0.00,VWS V14.01,2013-03-05 13:06:00,
2013-03-05 07:07:00,62.8,59.8,30.02,WSW,238,5.0,7.0,90,0.00,,---,0.00,0.00,VWS V14.01,2013-03-05 13:07:00,
2013-03-05 07:08:00,62.9,59.9,30.02,WSW,244,6.0,7.0,90,0.00,,---,0.00,0.00,VWS V14.01,2013-03-05 13:08:00,
2013-03-05 07:10:00,63.1,60.1,30.03,West,274,4.0,11.0,90,0.00,,---,0.00,0.00,VWS V14.01,2013-03-05 13:10:00,
2013-03-05 07:11:00,63.2,60.2,30.03,WSW,249,8.0,11.0,90,0.00,,---,0.00,0.00,VWS V14.01,2013-03-05 13:11:00,
2013-03-05 07:13:00,63.4,60.1,30.03,WSW,239,4.0,15.0,89,0.00,,---,0.00,0.00,VWS V14.01,2013-03-05 13:13:00,
2013-03-05 07:14:00,63.4,60.1,30.03,NW,317,7.0,15.0,89,0.00,,---,0.00,0.00,VWS V14.01,2013-03-05 13:14:00,
2013-03-05 07:16:00,63.5,59.9,30.04,NW,310,3.0,15.0,88,0.00,,---,0.00,0.00,VWS V14.01,2013-03-05 13:16:00,
2013-03-05 07:19:00,63.5,59.2,30.04,NW,304,6.0,15.0,86,0.00,,---,0.00,5.00,VWS V14.01,2013-03-05 13:19:00,
2013-03-05 07:20:00,63.5,58.9,30.04,WNW,285,3.0,15.0,85,0.00,,---,0.00,7.00,VWS V14.01,2013-03-05 13:20:00,
2013-03-05 07:22:00,63.5,58.9,30.04,WNW,292,2.0,15.0,85,0.00,,---,0.00,7.00,VWS V14.01,2013-03-05 13:22:00,
2013-03-05 07:24:00,63.4,57.8,30.04,NW,321,5.0,15.0,82,0.00,,---,0.00,9.00,VWS V14.01,2013-03-05 13:24:00,
2013-03-05 07:25:00,63.3,57.7,30.04,NW,305,2.0,15.0,82,0.00,,---,0.00,9.00,VWS V14.01,2013-03-05 13:25:00,
2013-03-05 07:28:00,63.1,57.2,30.04,WNW,299,3.0,15.0,81,0.00,,---,0.00,9.00,VWS V14.01,2013-03-05 13:28:00,
2013-03-05 07:29:00,63.0,56.7,30.04,NW,307,8.0,15.0,80,0.00,,---,0.00,11.00,VWS V14.01,2013-03-05 13:29:00,
2013-03-05 07:30:00,63.0,56.7,30.04,NW,315,6.0,6.0,80,0.00,,---,0.00,11.00,VWS V14.01,2013-03-05 13:30:00,
2013-03-05 07:33:00,62.9,56.3,30.05,WNW,289,3.0,8.0,79,0.00,,---,0.00,19.00,VWS V14.01,2013-03-05 13:33:00,
2013-03-05 07:35:00,62.8,56.2,30.05,NW,304,9.0,12.0,79,0.00,,---,0.00,26.00,VWS V14.01,2013-03-05 13:35:00,
2013-03-05 07:36:00,62.8,56.2,30.05,West,274,5.0,12.0,79,0.00,,---,0.00,33.00,VWS V14.01,2013-03-05 13:36:00,
2013-03-05 07:39:00,62.7,55.8,30.06,SSW,196,2.0,12.0,78,0.00,,---,0.00,35.00,VWS V14.01,2013-03-05 13:39:00,
2013-03-05 07:41:00,62.7,55.8,30.06,North,355,7.0,12.0,78,0.00,,---,0.00,33.00,VWS V14.01,2013-03-05 13:41:00,
2013-03-05 07:44:00,62.5,55.2,30.06,NW,314,11.0,12.0,77,0.00,,---,0.00,40.00,VWS V14.01,2013-03-05 13:44:00,
2013-03-05 07:45:00,62.4,54.8,30.07,North,360,6.0,12.0,76,0.00,,---,0.00,44.00,VWS V14.01,2013-03-05 13:45:00,
2013-03-05 07:50:00,62.2,54.5,30.07,WNW,299,4.0,12.0,76,0.00,,---,0.00,56.00,VWS V14.01,2013-03-05 13:50:00,
2013-03-05 07:51:00,62.1,54.5,30.07,WNW,300,2.0,12.0,76,0.00,,---,0.00,53.00,VWS V14.01,2013-03-05 13:51:00,
2013-03-05 07:53:00,62.0,54.0,30.07,NNW,343,8.0,13.0,75,0.00,,---,0.00,53.00,VWS V14.01,2013-03-05 13:53:00,
2013-03-05 07:55:00,61.9,53.9,30.08,WSW,241,2.0,13.0,75,0.00,,---,0.00,54.00,VWS V14.01,2013-03-05 13:55:00,
2013-03-05 07:57:00,61.8,53.8,30.08,West,281,4.0,13.0,75,0.00,,---,0.00,63.00,VWS V14.01,2013-03-05 13:57:00,
2013-03-05 07:59:00,61.6,52.9,30.08,WSW,257,5.0,13.0,73,0.00,,---,0.00,91.00,VWS V14.01,2013-03-05 13:59:00,
2013-03-05 08:00:00,57.6,46.3,30.15,West,263,5.0,16.0,66,0.00,,---,0.00,367.00,VWS V14.01,2013-03-05 14:00:00,
2013-03-05 08:02:00,61.3,52.2,30.09,WSW,246,5.0,11.0,72,0.00,,---,0.00,107.00,VWS V14.01,2013-03-05 14:02:00,
2013-03-05 08:04:00,61.2,51.7,30.09,NW,315,6.0,12.0,71,0.00,,---,0.00,114.00,VWS V14.01,2013-03-05 14:04:00,
2013-03-05 08:05:00,61.1,51.6,30.09,West,280,5.0,12.0,71,0.00,,---,0.00,109.00,VWS V14.01,2013-03-05 14:05:00,
2013-03-05 08:08:00,60.6,50.4,30.10,West,279,7.0,20.0,69,0.00,,---,0.00,114.00,VWS V14.01,2013-03-05 14:08:00,
2013-03-05 08:09:00,60.5,50.3,30.10,NW,307,3.0,20.0,69,0.00,,---,0.00,113.00,VWS V14.01,2013-03-05 14:09:00,
2013-03-05 08:10:00,60.4,50.2,30.10,West,279,3.0,20.0,69,0.00,,---,0.00,107.00,VWS V14.01,2013-03-05 14:10:00,
2013-03-05 08:11:00,60.3,50.1,30.10,WNW,292,6.0,20.0,69,0.00,,---,0.00,107.00,VWS V14.01,2013-03-05 14:11:00,
2013-03-05 08:13:00,60.1,49.5,30.11,WNW,295,3.0,20.0,68,0.00,,---,0.00,111.00,VWS V14.01,2013-03-05 14:13:00,
2013-03-05 08:14:00,59.9,49.3,30.11,WNW,296,5.0,20.0,68,0.00,,---,0.00,118.00,VWS V14.01,2013-03-05 14:14:00,
2013-03-05 08:16:00,59.6,49.0,30.11,WNW,288,4.0,20.0,68,0.00,,---,0.00,141.00,VWS V14.01,2013-03-05 14:16:00,
2013-03-05 08:18:00,59.3,48.4,30.11,West,274,5.0,20.0,67,0.00,,---,0.00,135.00,VWS V14.01,2013-03-05 14:18:00,
2013-03-05 08:19:00,59.1,48.2,30.11,West,263,6.0,20.0,67,0.00,,---,0.00,125.00,VWS V14.01,2013-03-05 14:19:00,
2013-03-05 08:21:00,58.7,48.2,30.12,NNW,338,5.0,20.0,68,0.00,,---,0.00,107.00,VWS V14.01,2013-03-05 14:21:00,
2013-03-05 08:23:00,58.5,48.4,30.12,North,351,5.0,20.0,69,0.00,,---,0.00,93.00,VWS V14.01,2013-03-05 14:23:00,
2013-03-05 08:25:00,58.4,48.3,30.12,WNW,286,12.0,20.0,69,0.00,,---,0.00,93.00,VWS V14.01,2013-03-05 14:25:00,
2013-03-05 08:27:00,58.1,47.6,30.13,WNW,295,4.0,20.0,68,0.00,,---,0.00,97.00,VWS V14.01,2013-03-05 14:27:00,
2013-03-05 08:28:00,57.8,47.3,30.13,North,5,9.0,20.0,68,0.00,,---,0.00,188.00,VWS V14.01,2013-03-05 14:28:00,
2013-03-05 08:30:00,57.7,47.2,30.13,WNW,301,4.0,15.0,68,0.00,,---,0.00,294.00,VWS V14.01,2013-03-05 14:30:00,
2013-03-05 08:32:00,57.6,47.1,30.14,North,5,10.0,15.0,68,0.00,,---,0.00,306.00,VWS V14.01,2013-03-05 14:32:00,
2013-03-05 08:35:00,57.5,47.4,30.13,NW,325,3.0,16.0,69,0.00,,---,0.00,311.00,VWS V14.01,2013-03-05 14:35:00,
2013-03-05 08:37:00,57.5,46.6,30.13,West,281,2.0,16.0,67,0.00,,---,0.00,315.00,VWS V14.01,2013-03-05 14:37:00,
2013-03-05 08:39:00,57.5,46.6,30.14,North,5,7.0,16.0,67,0.00,,---,0.00,325.00,VWS V14.01,2013-03-05 14:39:00,
2013-03-05 08:40:00,57.5,46.6,30.14,NW,304,12.0,16.0,67,0.00,,---,0.00,322.00,VWS V14.01,2013-03-05 14:40:00,
2013-03-05 08:42:00,57.4,46.5,30.14,West,266,6.0,16.0,67,0.00,,---,0.00,348.00,VWS V14.01,2013-03-05 14:42:00,
2013-03-05 08:44:00,57.3,46.5,30.14,WNW,290,4.0,16.0,67,0.00,,---,0.00,325.00,VWS V14.01,2013-03-05 14:44:00,
2013-03-05 08:45:00,57.3,46.0,30.14,WNW,284,4.0,16.0,66,0.00,,---,0.00,348.00,VWS V14.01,2013-03-05 14:45:00,
2013-03-05 08:47:00,57.4,46.2,30.14,WNW,285,12.0,16.0,66,0.00,,---,0.00,360.00,VWS V14.01,2013-03-05 14:47:00,
2013-03-05 08:48:00,57.3,46.0,30.14,WNW,294,11.0,16.0,66,0.00,,---,0.00,318.00,VWS V14.01,2013-03-05 14:48:00,
2013-03-05 08:50:00,57.2,46.0,30.14,NNW,347,3.0,16.0,66,0.00,,---,0.00,369.00,VWS V14.01,2013-03-05 14:50:00,
2013-03-05 08:52:00,57.2,46.0,30.14,WNW,287,4.0,16.0,66,0.00,,---,0.00,359.00,VWS V14.01,2013-03-05 14:52:00,
2013-03-05 08:54:00,57.3,46.0,30.15,NNW,348,6.0,16.0,66,0.00,,---,0.00,380.00,VWS V14.01,2013-03-05 14:54:00,
2013-03-05 08:56:00,57.5,46.2,30.15,WNW,302,10.0,16.0,66,0.00,,---,0.00,374.00,VWS V14.01,2013-03-05 14:56:00,
2013-03-05 08:59:00,57.6,45.9,30.15,NW,309,3.0,16.0,65,0.00,,---,0.00,313.00,VWS V14.01,2013-03-05 14:59:00,
2013-03-05 09:00:00,61.1,44.3,30.16,NW,305,5.0,16.0,54,0.00,,---,0.00,587.00,VWS V14.01,2013-03-05 15:00:00,
2013-03-05 09:01:00,57.8,46.5,30.15,NW,313,3.0,7.0,66,0.00,,---,0.00,431.00,VWS V14.01,2013-03-05 15:01:00,
2013-03-05 09:05:00,58.4,45.9,30.15,NW,315,3.0,10.0,63,0.00,,---,0.00,524.00,VWS V14.01,2013-03-05 15:05:00,
2013-03-05 09:06:00,58.9,46.3,30.15,WNW,288,1.0,10.0,63,0.00,,---,0.00,555.00,VWS V14.01,2013-03-05 15:06:00,
2013-03-05 09:07:00,59.0,46.4,30.15,NW,311,6.0,10.0,63,0.00,,---,0.00,555.00,VWS V14.01,2013-03-05 15:07:00,
2013-03-05 09:11:00,59.6,45.7,30.15,West,281,4.0,11.0,60,0.00,,---,0.00,265.00,VWS V14.01,2013-03-05 15:11:00,
2013-03-05 09:12:00,59.5,45.6,30.15,West,260,4.0,11.0,60,0.00,,---,0.00,258.00,VWS V14.01,2013-03-05 15:12:00,
2013-03-05 09:16:00,58.8,45.0,30.15,WNW,286,4.0,13.0,60,0.00,,---,0.00,267.00,VWS V14.01,2013-03-05 15:16:00,
2013-03-05 09:17:00,58.7,45.3,30.15,NNE,13,5.0,13.0,61,0.00,,---,0.00,267.00,VWS V14.01,2013-03-05 15:17:00,
2013-03-05 09:18:00,58.7,45.3,30.15,WNW,295,6.0,13.0,61,0.00,,---,0.00,274.00,VWS V14.01,2013-03-05 15:18:00,
2013-03-05 09:22:00,58.5,45.1,30.15,NW,311,5.0,13.0,61,0.00,,---,0.00,272.00,VWS V14.01,2013-03-05 15:22:00,
2013-03-05 09:23:00,58.5,44.7,30.15,NNW,340,4.0,13.0,60,0.00,,---,0.00,265.00,VWS V14.01,2013-03-05 15:23:00,
2013-03-05 09:27:00,58.6,45.2,30.15,North,5,8.0,13.0,61,0.00,,---,0.00,278.00,VWS V14.01,2013-03-05 15:27:00,
2013-03-05 09:28:00,58.7,45.3,30.15,ENE,63,5.0,13.0,61,0.00,,---,0.00,278.00,VWS V14.01,2013-03-05 15:28:00,
2013-03-05 09:29:00,58.9,45.5,30.15,WSW,240,1.0,13.0,61,0.00,,---,0.00,476.00,VWS V14.01,2013-03-05 15:29:00,
2013-03-05 09:30:00,62.5,43.6,30.17,SW,218,4.0,20.0,50,0.00,,---,0.00,684.00,VWS V14.01,2013-03-05 15:30:00,
2013-03-05 09:33:00,59.6,45.3,30.16,NNW,337,14.0,16.0,59,0.00,,---,0.00,478.00,VWS V14.01,2013-03-05 15:33:00,
2013-03-05 09:34:00,59.5,44.3,30.16,NW,310,6.0,16.0,57,0.00,,---,0.00,483.00,VWS V14.01,2013-03-05 15:34:00,
2013-03-05 09:38:00,59.5,44.3,30.16,WNW,286,6.0,16.0,57,0.00,,---,0.00,506.00,VWS V14.01,2013-03-05 15:38:00,
2013-03-05 09:39:00,59.5,44.3,30.16,WNW,284,5.0,16.0,57,0.00,,---,0.00,508.00,VWS V14.01,2013-03-05 15:39:00,
2013-03-05 09:40:00,59.5,44.3,30.16,NNW,340,8.0,16.0,57,0.00,,---,0.00,510.00,VWS V14.01,2013-03-05 15:40:00,
2013-03-05 09:44:00,59.4,44.2,30.16,NNW,328,6.0,16.0,57,0.00,,---,0.00,538.00,VWS V14.01,2013-03-05 15:44:00,
2013-03-05 09:45:00,59.4,44.2,30.16,WNW,301,5.0,16.0,57,0.00,,---,0.00,540.00,VWS V14.01,2013-03-05 15:45:00,
2013-03-05 09:50:00,60.2,44.0,30.16,NNE,18,5.0,16.0,55,0.00,,---,0.00,550.00,VWS V14.01,2013-03-05 15:50:00,
2013-03-05 09:51:00,60.3,44.6,30.16,West,265,6.0,16.0,56,0.00,,---,0.00,563.00,VWS V14.01,2013-03-05 15:51:00,
2013-03-05 09:55:00,60.3,44.1,30.16,NNW,333,3.0,16.0,55,0.00,,---,0.00,573.00,VWS V14.01,2013-03-05 15:55:00,
2013-03-05 09:57:00,60.5,44.3,30.16,WSW,248,7.0,16.0,55,0.00,,---,0.00,580.00,VWS V14.01,2013-03-05 15:57:00,
2013-03-05 10:00:00,64.8,43.0,30.18,NW,315,5.0,14.0,45,0.00,,---,0.00,719.00,VWS V14.01,2013-03-05 16:00:00,
2013-03-05 10:01:00,61.3,44.5,30.17,NNW,341,14.0,20.0,54,0.00,,---,0.00,594.00,VWS V14.01,2013-03-05 16:01:00,
2013-03-05 10:02:00,61.4,43.6,30.16,NNW,332,6.0,20.0,52,0.00,,---,0.00,599.00,VWS V14.01,2013-03-05 16:02:00,
2013-03-05 10:03:00,61.4,44.1,30.17,NNW,332,4.0,20.0,53,0.00,,---,0.00,599.00,VWS V14.01,2013-03-05 16:03:00,
2013-03-05 10:07:00,61.9,44.1,30.16,NNW,348,4.0,20.0,52,0.00,,---,0.00,619.00,VWS V14.01,2013-03-05 16:07:00,
2013-03-05 10:08:00,62.2,43.9,30.16,North,350,3.0,20.0,51,0.00,,---,0.00,622.00,VWS V14.01,2013-03-05 16:08:00,
2013-03-05 10:10:00,62.4,44.0,30.17,NW,306,6.0,20.0,51,0.00,,---,0.00,629.00,VWS V14.01,2013-03-05 16:10:00,
2013-03-05 10:13:00,62.1,44.3,30.17,NW,310,5.0,20.0,52,0.00,,---,0.00,633.00,VWS V14.01,2013-03-05 16:13:00,
2013-03-05 10:15:00,62.2,43.3,30.16,NNW,347,7.0,20.0,50,0.00,,---,0.00,640.00,VWS V14.01,2013-03-05 16:15:00,
2013-03-05 10:18:00,62.3,43.4,30.17,NNW,339,8.0,20.0,50,0.00,,---,0.00,649.00,VWS V14.01,2013-03-05 16:18:00,
2013-03-05 10:19:00,62.1,43.3,30.16,WNW,284,7.0,20.0,50,0.00,,---,0.00,654.00,VWS V14.01,2013-03-05 16:19:00,
2013-03-05 10:23:00,61.9,43.6,30.17,NNW,344,6.0,20.0,51,0.00,,---,0.00,664.00,VWS V14.01,2013-03-05 16:23:00,
2013-03-05 10:24:00,62.0,43.7,30.17,NW,307,10.0,20.0,51,0.00,,---,0.00,664.00,VWS V14.01,2013-03-05 16:24:00,
2013-03-05 10:25:00,62.0,43.2,30.17,NNE,16,2.0,20.0,50,0.00,,---,0.00,664.00,VWS V14.01,2013-03-05 16:25:00,
2013-03-05 10:29:00,62.3,43.4,30.17,North,355,3.0,20.0,50,0.00,,---,0.00,679.00,VWS V14.01,2013-03-05 16:29:00,
2013-03-05 11:00:00,64.8,43.0,30.18,NW,315,5.0,14.0,45,0.00,,---,0.00,719.00,VWS V14.01,2013-03-05 17:00:00,
2013-03-05 11:30:00,65.9,42.8,30.18,NW,315,4.0,11.0,43,0.00,,---,0.00,784.00,VWS V14.01,2013-03-05 17:30:00,
2013-03-05 12:00:00,66.5,42.1,30.19,NW,315,5.0,13.0,41,0.00,,---,0.00,806.00,VWS V14.01,2013-03-05 18:00:00,
2013-03-05 12:30:00,66.9,41.2,30.19,NW,315,5.0,18.0,39,0.00,,---,0.00,776.00,VWS V14.01,2013-03-05 18:30:00,
2013-03-05 13:00:00,67.8,39.2,30.19,NW,315,5.0,18.0,35,0.00,,---,0.00,840.00,VWS V14.01,2013-03-05 19:00:00,
2013-03-05 13:30:00,70.6,39.3,30.18,NW,315,5.0,16.0,32,0.00,,---,0.00,517.00,VWS V14.01,2013-03-05 19:30:00,
2013-03-05 14:00:00,68.9,34.5,30.18,NW,315,6.0,14.0,28,0.00,,---,0.00,69.00,VWS V14.01,2013-03-05 20:00:00,
2013-03-05 14:30:00,68.2,33.9,30.18,NW,315,5.0,15.0,28,0.00,,---,0.00,471.00,VWS V14.01,2013-03-05 20:30:00,
2013-03-05 15:00:00,68.6,34.2,30.19,NW,315,5.0,13.0,28,0.00,,---,0.00,285.00,VWS V14.01,2013-03-05 21:00:00,
2013-03-05 15:30:00,68.5,32.3,30.20,NW,315,6.0,13.0,26,0.00,,---,0.00,466.00,VWS V14.01,2013-03-05 21:30:00,
2013-03-05 16:00:00,68.8,32.5,30.20,NW,315,5.0,12.0,26,0.00,,---,0.00,485.00,VWS V14.01,2013-03-05 22:00:00,
2013-03-05 16:30:00,67.6,32.5,30.20,NW,315,4.0,15.0,27,0.00,,---,0.00,405.00,VWS V14.01,2013-03-05 22:30:00,
2013-03-05 17:00:00,65.8,30.9,30.21,NW,315,4.0,12.0,27,0.00,,---,0.00,202.00,VWS V14.01,2013-03-05 23:00:00,
2013-03-05 17:30:00,64.3,30.5,30.21,NW,315,4.0,13.0,28,0.00,,---,0.00,83.00,VWS V14.01,2013-03-05 23:30:00,
2013-03-05 18:00:00,62.8,31.7,30.22,NNW,338,2.0,8.0,31,0.00,,---,0.00,31.00,VWS V14.01,2013-03-06 00:00:00,
2013-03-05 18:30:00,60.3,32.6,30.24,WNW,292,1.0,4.0,35,0.00,,---,0.00,6.00,VWS V14.01,2013-03-06 00:30:00,
2013-03-05 19:00:00,57.8,33.0,30.26,WNW,292,1.0,4.0,39,0.00,,---,0.00,0.00,VWS V14.01,2013-03-06 01:00:00,
2013-03-05 19:30:00,55.6,32.9,30.27,NW,315,0.0,3.0,42,0.00,,---,0.00,0.00,VWS V14.01,2013-03-06 01:30:00,
2013-03-05 20:00:00,53.2,31.9,30.28,WNW,292,0.0,5.0,44,0.00,,---,0.00,0.00,VWS V14.01,2013-03-06 02:00:00,
2013-03-05 20:30:00,51.5,32.0,30.30,NW,315,0.0,4.0,47,0.00,,---,0.00,0.00,VWS V14.01,2013-03-06 02:30:00,
2013-03-05 21:00:00,49.1,31.3,30.31,WNW,292,0.0,5.0,50,0.00,,---,0.00,0.00,VWS V14.01,2013-03-06 03:00:00,
2013-03-05 21:30:00,48.5,31.2,30.33,NW,315,1.0,6.0,51,0.00,,---,0.00,0.00,VWS V14.01,2013-03-06 03:30:00,
2013-03-05 22:00:00,47.0,30.3,30.34,NW,315,0.0,4.0,52,0.00,,---,0.00,0.00,VWS V14.01,2013-03-06 04:00:00,
2013-03-05 22:30:00,45.2,31.3,30.35,WNW,292,0.0,4.0,58,0.00,,---,0.00,0.00,VWS V14.01,2013-03-06 04:30:00,
2013-03-05 23:00:00,43.1,31.0,30.35,NW,315,0.0,2.0,62,0.00,,---,0.00,0.00,VWS V14.01,2013-03-06 05:00:00,
2013-03-05 23:30:00,41.1,30.2,30.35,NW,315,0.0,0.0,65,0.00,,---,0.00,0.00,VWS V14.01,2013-03-06 05:30:00,